Date String (YYYY-MM-DD hh:mm:ss) UTC,Instrument flags,Ambient pressure (hPa),Sample flow (lpm),Bypass flow (lpm),Sample temperature (°C),Ambient temperature (°C),ASC tube jacket temperature (°C),LED temperature (°C),Box temperature (°C),Sample RH (%),Span deviation,Mass concentration (μg/m³),Mass concentration (μg/m³),Mass concentration (μg/m³)
DateTimeUTC,F1_M11,P_M11,Q1_M11,Q2_M11,T1_M11,T2_M11,T3_M11,T4_M11,T5_M11,U1_M11,ZSPAN_M11,X0_M11,X2_M11,X1_M11
2021-10-07 03:00:00,,0825.1,5.00,0.00,29.7,28.5,00.0,38.7,31.4,14.8,0000.0,0001.87,0001.16,0000.94
2021-10-07 03:01:00,,0825.2,5.00,0.00,29.7,28.6,00.0,38.7,31.5,14.7,0000.0,0002.00,0001.15,0000.93
2021-10-07 03:02:00,,0825.2,5.00,0.00,29.7,28.7,00.0,38.7,31.5,14.7,0000.0,0001.98,0001.15,0000.93
2021-10-07 03:03:00,,0825.2,4.98,0.00,29.8,28.8,00.0,38.7,31.6,14.7,0000.0,0001.96,0001.14,0000.93
2021-10-07 03:04:00,,0825.3,5.01,0.00,29.8,28.9,00.0,38.7,31.6,14.7,0000.0,0002.57,0001.13,0000.94
2021-10-07 03:05:00,,0825.3,5.01,0.00,29.8,28.9,00.0,38.8,31.7,15.0,0000.0,0002.93,0001.12,0000.94
2021-10-07 03:06:00,,0825.3,5.00,0.00,29.9,29.0,00.0,38.8,31.7,15.4,0000.0,0003.81,0001.15,0000.96
2021-10-07 03:07:00,,0825.3,5.01,0.00,29.9,29.0,00.0,38.8,31.7,15.8,0000.0,0005.09,0001.20,0000.98
2021-10-07 03:08:00,,0825.3,5.01,0.00,29.9,29.1,00.0,38.8,31.7,15.8,0000.0,0005.67,0001.23,0001.00
2021-10-07 03:09:00,,0825.3,5.00,0.00,29.9,27.9,00.0,38.9,31.5,15.8,0000.0,0006.08,0001.23,0001.02
2021-10-07 03:10:00,,0825.3,5.00,0.00,29.8,26.4,00.0,38.8,31.1,15.9,0000.0,0005.99,0001.22,0001.03
2021-10-07 03:11:00,,0825.3,5.00,0.00,29.7,26.4,00.0,38.8,31.1,15.8,0000.0,0006.01,0001.25,0001.04
2021-10-07 03:12:00,,0825.3,4.99,0.00,29.6,26.8,00.0,38.8,31.1,15.8,0000.0,0006.22,0001.28,0001.04
2021-10-07 03:13:00,,0825.3,5.00,0.00,29.6,27.2,00.0,38.7,31.1,15.9,0000.0,0006.37,0001.31,0001.05
2021-10-07 03:14:00,,0825.3,4.99,0.00,29.6,27.5,00.0,38.7,31.2,16.0,0000.0,0006.40,0001.32,0001.06
2021-10-07 03:15:00,,0825.3,5.00,0.00,29.6,27.8,00.0,38.7,31.2,15.8,0000.0,0006.77,0001.33,0001.05
2021-10-07 03:16:00,,0825.3,5.00,0.00,29.6,28.0,00.0,38.7,31.3,15.9,0000.0,0006.72,0001.33,0001.04
2021-10-07 03:17:00,,0825.3,4.99,0.00,29.6,28.2,00.0,38.7,31.3,15.9,0000.0,0006.69,0001.35,0001.04
2021-10-07 03:18:00,,0825.3,4.99,0.00,29.6,28.4,00.0,38.7,31.4,15.8,0000.0,0005.62,0001.30,0001.02
2021-10-07 03:19:00,,0825.3,5.02,0.00,29.7,28.5,00.0,38.7,31.4,15.7,0000.0,0005.07,0001.26,0001.01
2021-10-07 03:20:00,,0825.4,5.00,0.00,29.7,28.6,00.0,38.7,31.5,15.4,0000.0,0004.34,0001.25,0001.00
2021-10-07 03:21:00,,0825.4,4.98,0.00,29.7,28.7,00.0,38.7,31.5,15.2,0000.0,0004.34,0001.27,0000.99
2021-10-07 03:22:00,,0825.4,4.99,0.00,29.7,28.8,00.0,38.7,31.6,15.4,0000.0,0004.26,0001.24,0000.98
2021-10-07 03:23:00,,0825.3,4.99,0.00,29.8,28.8,00.0,38.7,31.6,15.4,0000.0,0003.84,0001.22,0000.97
2021-10-07 03:24:00,,0825.3,5.02,0.00,29.8,28.9,00.0,38.8,31.7,15.3,0000.0,0003.63,0001.17,0000.95
2021-10-07 03:25:00,,0825.3,5.00,0.00,29.8,29.0,00.0,38.8,31.7,15.0,0000.0,0003.59,0001.15,0000.94
2021-10-07 03:26:00,,0825.3,5.01,0.00,29.9,29.0,00.0,38.8,31.7,15.0,0000.0,0003.03,0001.14,0000.93
2021-10-07 03:27:00,,0825.4,4.98,0.00,29.9,29.0,00.0,38.8,31.7,14.9,0000.0,0003.79,0001.16,0000.93
2021-10-07 03:28:00,,0825.4,5.00,0.00,29.9,29.1,00.0,38.9,31.8,14.9,0000.0,0003.10,0001.15,0000.93
2021-10-07 03:29:00,,0825.3,5.01,0.00,29.9,28.4,00.0,38.9,31.6,14.8,0000.0,0002.90,0001.18,0000.93
2021-10-07 03:30:00,,0825.3,4.99,0.00,29.8,26.5,00.0,38.9,31.2,15.0,0000.0,0002.90,0001.18,0000.93
2021-10-07 03:31:00,,0825.3,5.01,0.00,29.7,26.3,00.0,38.8,31.0,15.1,0000.0,0002.89,0001.16,0000.92
2021-10-07 03:32:00,,0825.3,4.99,0.00,29.6,26.7,00.0,38.8,31.1,15.0,0000.0,0002.90,0001.14,0000.92
2021-10-07 03:33:00,,0825.3,5.00,0.00,29.6,27.1,00.0,38.8,31.1,15.0,0000.0,0002.87,0001.13,0000.92
2021-10-07 03:34:00,,0825.3,4.99,0.00,29.6,27.4,00.0,38.7,31.2,15.1,0000.0,0002.87,0001.14,0000.92
2021-10-07 03:35:00,,0825.3,5.00,0.00,29.6,27.7,00.0,38.7,31.2,15.1,0000.0,0003.01,0001.19,0000.92
2021-10-07 03:36:00,,0825.3,5.00,0.00,29.6,27.9,00.0,38.7,31.3,15.0,0000.0,0003.09,0001.21,0000.92
2021-10-07 03:37:00,,0825.3,5.00,0.00,29.6,28.1,00.0,38.7,31.3,14.8,0000.0,0003.08,0001.20,0000.91
2021-10-07 03:38:00,,0825.4,5.00,0.00,29.6,28.3,00.0,38.7,31.3,15.1,0000.0,0001.86,0001.16,0000.91
2021-10-07 03:39:00,,0825.3,4.98,0.00,29.6,28.4,00.0,38.7,31.4,15.0,0000.0,0001.75,0001.15,0000.90
2021-10-07 03:40:00,,0825.3,5.00,0.00,29.6,28.5,00.0,38.7,31.4,15.0,0000.0,0001.65,0001.10,0000.89
2021-10-07 03:41:00,,0825.3,5.00,0.00,29.7,28.6,00.0,38.7,31.5,15.0,0000.0,0001.73,0001.12,0000.88
2021-10-07 03:42:00,,0825.4,5.00,0.00,29.7,28.7,00.0,38.7,31.5,15.0,0000.0,0001.67,0001.10,0000.88
2021-10-07 03:43:00,,0825.4,5.00,0.00,29.7,28.8,00.0,38.7,31.5,15.0,0000.0,0001.57,0001.08,0000.86
2021-10-07 03:44:00,,0825.4,5.00,0.00,29.8,28.8,00.0,38.8,31.6,15.1,0000.0,0001.85,0001.07,0000.86
2021-10-07 03:45:00,,0825.5,4.99,0.00,29.8,28.9,00.0,38.8,31.7,15.1,0000.0,0002.50,0001.09,0000.85
2021-10-07 03:46:00,,0825.5,4.99,0.00,29.8,28.9,00.0,38.8,31.7,14.9,0000.0,0002.40,0001.05,0000.85
2021-10-07 03:47:00,,0825.4,4.99,0.00,29.8,28.9,00.0,38.8,31.7,15.0,0000.0,0002.33,0001.02,0000.84
2021-10-07 03:48:00,,0825.4,5.00,0.00,29.9,29.0,00.0,38.8,31.7,15.0,0000.0,0002.32,0001.03,0000.84
2021-10-07 03:49:00,,0825.4,5.00,0.00,29.9,29.0,00.0,38.9,31.7,15.0,0000.0,0002.37,0001.05,0000.84
2021-10-07 03:50:00,,0825.5,5.01,0.00,29.9,29.0,00.0,38.9,31.8,15.0,0000.0,0002.36,0001.06,0000.84
2021-10-07 03:51:00,,0825.4,5.00,0.00,29.9,28.9,00.0,38.9,31.7,14.9,0000.0,0002.36,0001.06,0000.84
2021-10-07 03:52:00,,0825.5,5.00,0.00,29.9,27.2,00.0,38.9,31.3,14.9,0000.0,0002.26,0001.03,0000.84
2021-10-07 03:53:00,,0825.4,5.00,0.00,29.7,26.3,00.0,38.9,31.0,15.0,0000.0,0002.28,0001.05,0000.86
2021-10-07 03:54:00,,0825.5,5.00,0.00,29.6,26.6,00.0,38.8,31.1,15.1,0000.0,0004.07,0001.07,0000.87
2021-10-07 03:55:00,,0825.5,5.00,0.00,29.6,26.9,00.0,38.8,31.1,15.2,0000.0,0004.58,0001.08,0000.87
2021-10-07 03:56:00,,0825.5,5.00,0.00,29.5,27.3,00.0,38.7,31.2,15.2,0000.0,0004.30,0001.05,0000.88
2021-10-07 03:57:00,,0825.4,4.99,0.00,29.5,27.7,00.0,38.7,31.2,15.2,0000.0,0004.26,0001.04,0000.88
2021-10-07 03:58:00,,0825.5,5.00,0.00,29.6,27.9,00.0,38.7,31.3,15.2,0000.0,0004.22,0001.04,0000.89
2021-10-07 03:59:00,,0825.5,5.02,0.00,29.6,28.1,00.0,38.7,31.3,15.2,0000.0,0004.32,0001.06,0000.89
